This is the latest recevied weather packets stored in our database for station/object KC4GS-13. If no packets are shown the sender has not sent any weather packets the latest 10 day(s).
| Time | Temp. | Humidity | Pressure | Rain* | Wind** | Luminosity | Snow |
|---|---|---|---|---|---|---|---|
| 1787677660 | 31.67° C | 57% | 1018.8 hPa | 0 mm | - | 354 W/m² | - |
| 1787677359 | 31.67° C | 58% | 1019 hPa | 0 mm | - | 232 W/m² | - |
| 1787677053 | 31.67° C | 59% | 1018.9 hPa | 0 mm | - | 574 W/m² | - |
| 1787676749 | 31.11° C | 58% | 1019 hPa | 0 mm | - | 610 W/m² | - |
| 1787676444 | 31.11° C | 59% | 1019.2 hPa | 0 mm | - | 130 W/m² | - |
| 1787676141 | 31.11° C | 60% | 1019.2 hPa | 0 mm | - | 89 W/m² | - |
| 1787675836 | 31.11° C | 60% | 1019.1 hPa | 0 mm | - | 220 W/m² | - |
| 1787675532 | 30.56° C | 61% | 1019.2 hPa | 0 mm | - | 227 W/m² | - |
| 1787675230 | 30.56° C | 60% | 1019.5 hPa | 0 mm | - | 204 W/m² | - |
| 1787674925 | 30.56° C | 62% | 1019.4 hPa | 0 mm | - | 95 W/m² | - |
| 1787674620 | 30.56° C | 61% | 1019.4 hPa | 0 mm | - | 88 W/m² | - |
| 1787674316 | 30.56° C | 61% | 1019.7 hPa | 0 mm | - | 226 W/m² | - |
| 1787674010 | 30.56° C | 61% | 1019.7 hPa | 0 mm | - | 312 W/m² | - |
| 1787673706 | 30° C | 61% | 1019.6 hPa | 0 mm | - | 505 W/m² | - |
| 1787673405 | 30° C | 62% | 1019.7 hPa | 0 mm | - | 123 W/m² | - |
| 1787673099 | 30° C | 62% | 1019.7 hPa | 0 mm | - | 540 W/m² | - |
| 1787672794 | 29.44° C | 62% | 1019.6 hPa | 0 mm | - | 461 W/m² | - |
| 1787672490 | 29.44° C | 61% | 1019.7 hPa | 0 mm | - | 253 W/m² | - |
| 1787672189 | 29.44° C | 63% | 1019.8 hPa | 0 mm | - | 261 W/m² | - |
| 1787671884 | 28.89° C | 64% | 1019.7 hPa | 0 mm | - | 142 W/m² | - |
| 1787671580 | 28.89° C | 64% | 1019.7 hPa | 0 mm | - | 325 W/m² | - |
| 1787671280 | 28.33° C | 65% | 1020 hPa | 0 mm | - | 468 W/m² | - |
| 1787670980 | 28.33° C | 66% | 1019.9 hPa | 0 mm | - | 434 W/m² | - |
| 1787670676 | 28.33° C | 65% | 1020 hPa | 0 mm | - | 643 W/m² | - |
| 1787670370 | 28.33° C | 66% | 1019.7 hPa | 0 mm | - | 587 W/m² | - |
* Rain latest hour (hover to see other rain measurements)
** Current wind speed in m/s (hover to see current wind gust speed)